CW4957 Weather Reports


Display with metric or nautical units.
time (UTC)temp
F
wind
direction
speed
MPH
gust
MPH
rain 1hr
in
rain 24hr
in
rain mn
in
humidity
%
barometer
mb
20180524174902 78 231 2.0 7.0 0.00 0.00 0.00 22 1018.3
20180524174349 78 17 2.0 4.0 0.00 0.00 0.00 21 1018.3
20180524173858 78 5 0.0 4.0 0.00 0.00 0.00 23 1018.4
20180524173348 78 24 1.0 4.0 0.00 0.00 0.00 25 1018.4
20180524172901 78 13 1.0 5.0 0.00 0.00 0.00 22 1018.4
20180524172352 77 14 2.0 5.0 0.00 0.00 0.00 23 1018.5
20180524171847 77 13 1.0 5.0 0.00 0.00 0.00 23 1018.5
20180524171359 77 17 2.0 5.0 0.00 0.00 0.00 22 1018.5
20180524170849 77 50 1.0 4.0 0.00 0.00 0.00 23 1018.8
20180524170346 77 15 2.0 4.0 0.00 0.00 0.00 21 1018.8
20180524165858 77 192 1.0 3.0 0.00 0.00 0.00 29 1018.8
20180524165349 76 109 1.0 4.0 0.00 0.00 0.00 26 1018.9
20180524164843 76 5 2.0 4.0 0.00 0.00 0.00 22 1018.9
20180524164355 76 5 1.0 3.0 0.00 0.00 0.00 22 1018.9
20180524163843 76 288 0.0 4.0 0.00 0.00 0.00 24 1018.9
20180524163357 76 215 1.0 4.0 0.00 0.00 0.00 23 1018.9
20180524162850 76 217 1.0 3.0 0.00 0.00 0.00 25 1018.9
20180524162344 75 84 1.0 2.0 0.00 0.00 0.00 24 1018.9
20180524161856 75 90 1.0 3.0 0.00 0.00 0.00 29 1018.9
20180524161347 74 90 2.0 4.0 0.00 0.00 0.00 29 1018.9
20180524160851 74 21 2.0 4.0 0.00 0.00 0.00 26 1019.3
20180524160350 73 64 1.0 5.0 0.00 0.00 0.00 26 1019.3
20180524155844 73 14 1.0 4.0 0.00 0.00 0.00 26 1019.3
20180524155352 73 360 2.0 5.0 0.00 0.00 0.00 26 1019.4
20180524154841 73 26 3.0 5.0 0.00 0.00 0.00 27 1019.4
20180524154358 73 15 1.0 4.0 0.00 0.00 0.00 29 1019.4
20180524153846 72 17 2.0 4.0 0.00 0.00 0.00 29 1019.4
20180524153356 72 130 1.0 4.0 0.00 0.00 0.00 29 1019.4
20180524152851 72 257 1.0 3.0 0.00 0.00 0.00 29 1019.4
20180524152359 72 277 1.0 3.0 0.00 0.00 0.00 28 1019.4
20180524151848 72 242 1.0 4.0 0.00 0.00 0.00 29 1019.4
20180524151356 71 277 2.0 4.0 0.00 0.00 0.00 29 1019.4
20180524150849 71 124 2.0 4.0 0.00 0.00 0.00 30 1019.4
20180524150347 71 11 1.0 4.0 0.00 0.00 0.00 30 1019.4
20180524145859 71 266 2.0 4.0 0.00 0.00 0.00 29 1019.4
20180524145350 71 295 1.0 3.0 0.00 0.00 0.00 29 1019.3
20180524144901 71 257 1.0 2.0 0.00 0.00 0.00 31 1019.3
20180524144354 70 281 1.0 3.0 0.00 0.00 0.00 32 1019.3
20180524143843 70 286 1.0 4.0 0.00 0.00 0.00 32 1019.4
20180524143351 69 258 3.0 4.0 0.00 0.00 0.00 31 1019.4
20180524142845 69 287 2.0 4.0 0.00 0.00 0.00 32 1019.4
20180524142357 69 293 2.0 5.0 0.00 0.00 0.00 33 1019.4
20180524141848 68 20 2.0 5.0 0.00 0.00 0.00 32 1019.4
20180524141359 68 246 2.0 5.0 0.00 0.00 0.00 34 1019.4
20180524140848 68 213 2.0 5.0 0.00 0.00 0.00 32 1019.4
20180524140339 67 17 3.0 6.0 0.00 0.00 0.00 32 1019.4
20180524135857 68 123 1.0 6.0 0.00 0.00 0.00 36 1019.4
20180524135346 67 207 2.0 5.0 0.00 0.00 0.00 32 1019.4
20180524134840 67 234 2.0 5.0 0.00 0.00 0.00 38 1019.4
20180524134355 67 24 2.0 5.0 0.00 0.00 0.00 36 1019.4
20180524133846 68 211 2.0 5.0 0.00 0.00 0.00 35 1019.4
20180524133357 67 243 1.0 3.0 0.00 0.00 0.00 34 1019.4
20180524132849 67 276 2.0 3.0 0.00 0.00 0.00 34 1019.4
20180524132358 67 186 1.0 4.0 0.00 0.00 0.00 39 1019.4
20180524131847 66 254 1.0 4.0 0.00 0.00 0.00 37 1019.4
20180524131348 66 181 0.0 2.0 0.00 0.00 0.00 44 1019.4
20180524130856 65 132 1.0 2.0 0.00 0.00 0.00 47 1019.5
20180524130354 65 134 1.0 2.0 0.00 0.00 0.00 44 1019.5
20180524125843 64 94 1.0 3.0 0.00 0.00 0.00 54 1019.5
20180524125354 63 120 1.0 3.0 0.00 0.00 0.00 47 1019.6
20180524124841 62 82 0.0 2.0 0.00 0.00 0.00 59 1019.6
20180524124353 60 82 0.0 2.0 0.00 0.00 0.00 65 1019.6
20180524123845 58 47 0.0 0.0 0.00 0.00 0.00 70 1019.8
20180524123356 58 47 0.0 0.0 0.00 0.00 0.00 77 1019.8
20180524122845 56 47 0.0 0.0 0.00 0.00 0.00 75 1019.8
20180524122353 56 47 0.0 0.0 0.00 0.00 0.00 76 1019.6
20180524121847 55 47 0.0 0.0 0.00 0.00 0.00 80 1019.6
20180524121339 55 47 0.0 0.0 0.00 0.00 0.00 82 1019.6
20180524120849 54 47 0.0 0.0 0.00 0.00 0.00 82 1019.6
20180524120351 54 47 0.0 0.0 0.00 0.00 0.00 83 1019.6
20180524115858 53 47 0.0 0.0 0.00 0.00 0.00 84 1019.6
20180524115349 53 47 0.0 0.0 0.00 0.00 0.00 84 1019.4
20180524114857 52 47 0.0 0.0 0.00 0.00 0.00 86 1019.4
20180524114346 52 47 0.0 0.0 0.00 0.00 0.00 87 1019.4
20180524113856 52 47 0.0 0.0 0.00 0.00 0.00 89 1019.2
20180524113345 52 47 0.0 0.0 0.00 0.00 0.00 90 1019.2
20180524112852 51 47 0.0 0.0 0.00 0.00 0.00 91 1019.2
20180524112344 51 47 0.0 0.0 0.00 0.00 0.00 91 1019.1
20180524111855 51 47 0.0 0.0 0.00 0.00 0.00 91 1019.1
20180524111347 51 47 0.0 0.0 0.00 0.00 0.00 91 1019.1
20180524110855 51 47 0.0 0.0 0.00 0.00 0.00 90 1018.9
20180524110351 50 47 0.0 0.0 0.00 0.00 0.00 90 1018.9
20180524105843 50 47 0.0 0.0 0.00 0.00 0.00 89 1018.9
20180524105356 50 47 0.0 0.0 0.00 0.00 0.00 89 1018.8
20180524104846 50 47 0.0 0.0 0.00 0.00 0.00 89 1018.8
20180524104354 50 47 0.0 0.0 0.00 0.00 0.00 88 1018.8
20180524103843 50 47 0.0 0.0 0.00 0.00 0.00 88 1018.5
20180524103351 50 47 0.0 0.0 0.00 0.00 0.00 88 1018.5
20180524102859 50 47 0.0 0.0 0.00 0.00 0.00 88 1018.5
20180524102354 50 47 0.0 0.0 0.00 0.00 0.00 87 1018.3
20180524101842 50 47 0.0 0.0 0.00 0.00 0.00 87 1018.3
20180524101350 51 47 0.0 0.0 0.00 0.00 0.00 86 1018.3
20180524100900 51 47 0.0 0.0 0.00 0.00 0.00 86 1018.0
20180524100356 51 47 0.0 0.0 0.00 0.00 0.00 86 1018.0
20180524095848 51 47 0.0 0.0 0.00 0.00 0.00 86 1018.0
20180524095359 51 47 0.0 0.0 0.00 0.00 0.00 85 1017.8
20180524094852 51 47 0.0 0.0 0.00 0.00 0.00 84 1017.8
20180524094400 51 47 0.0 0.0 0.00 0.00 0.00 84 1017.8
20180524093851 51 47 0.0 0.0 0.00 0.00 0.00 83 1017.6
20180524093341 51 47 0.0 0.0 0.00 0.00 0.00 82 1017.6
20180524092850 52 47 0.0 0.0 0.00 0.00 0.00 82 1017.6
20180524092357 52 47 0.0 0.0 0.00 0.00 0.00 82 1017.3
20180524091849 52 47 0.0 0.0 0.00 0.00 0.00 81 1017.3
20180524091357 52 47 0.0 0.0 0.00 0.00 0.00 81 1017.3
20180524090850 52 47 0.0 0.0 0.00 0.00 0.00 81 1017.1
20180524090351 53 47 0.0 0.0 0.00 0.00 0.00 81 1017.1
20180524085844 53 47 0.0 0.0 0.00 0.00 0.00 80 1017.1
20180524085352 53 47 0.0 0.0 0.00 0.00 0.00 80 1016.9
20180524084843 53 47 0.0 0.0 0.00 0.00 0.00 80 1016.9
20180524084346 53 47 0.0 0.0 0.00 0.00 0.00 79 1016.9
20180524083858 54 47 0.0 0.0 0.00 0.00 0.00 79 1016.8
20180524083346 54 47 0.0 0.0 0.00 0.00 0.00 79 1016.8
20180524082853 54 47 0.0 0.0 0.00 0.00 0.00 78 1016.8
20180524082342 54 47 0.0 0.0 0.00 0.00 0.00 78 1016.8
20180524081857 54 47 0.0 0.0 0.00 0.00 0.00 78 1016.8
20180524081344 54 47 0.0 0.0 0.00 0.00 0.00 78 1016.8
20180524080847 54 47 0.0 0.0 0.00 0.00 0.00 79 1016.7
20180524080355 54 47 0.0 0.0 0.00 0.00 0.00 78 1016.7
20180524075850 55 47 0.0 0.0 0.00 0.00 0.00 79 1016.7
20180524075358 55 47 0.0 0.0 0.00 0.00 0.00 78 1016.4
20180524074846 55 47 0.0 0.0 0.00 0.00 0.00 78 1016.4
20180524074357 55 47 0.0 0.0 0.00 0.00 0.00 78 1016.4
20180524073846 55 47 0.0 0.0 0.00 0.00 0.00 78 1016.3
20180524073356 55 47 0.0 0.0 0.00 0.00 0.00 78 1016.3
20180524072851 55 47 0.0 0.0 0.00 0.00 0.00 78 1016.3
20180524072359 56 47 0.0 0.0 0.00 0.00 0.00 78 1016.2
20180524071851 56 47 0.0 0.0 0.00 0.00 0.00 78 1016.2
20180524071359 56 47 0.0 0.0 0.00 0.00 0.00 78 1016.2
20180524070853 56 47 0.0 0.0 0.00 0.00 0.00 78 1016.2
20180524070345 56 47 0.0 0.0 0.00 0.00 0.00 77 1016.2
20180524065851 56 47 0.0 0.0 0.00 0.00 0.00 77 1016.2
20180524065349 56 47 0.0 0.0 0.00 0.00 0.00 76 1016.0
20180524064850 56 47 0.0 0.0 0.00 0.00 0.00 76 1016.0
20180524064342 56 47 0.0 0.0 0.00 0.00 0.00 76 1016.0
20180524063854 56 47 0.0 0.0 0.00 0.00 0.00 76 1015.8
20180524063345 56 47 0.0 0.0 0.00 0.00 0.00 76 1015.8
20180524062854 56 47 0.0 0.0 0.00 0.00 0.00 77 1015.8
20180524062345 56 47 0.0 0.0 0.00 0.00 0.00 77 1015.8
20180524061856 56 47 0.0 0.0 0.00 0.00 0.00 77 1015.8
20180524061349 57 47 0.0 0.0 0.00 0.00 0.00 78 1015.8
20180524060858 57 47 0.0 0.0 0.00 0.00 0.00 78 1015.8
20180524060356 57 47 0.0 0.0 0.00 0.00 0.00 78 1015.8
20180524055850 57 47 0.0 0.0 0.00 0.00 0.00 78 1015.8
20180524055341 57 47 0.0 0.0 0.00 0.00 0.00 78 1015.8
20180524054850 58 47 0.0 0.0 0.00 0.00 0.00 76 1015.8
20180524054343 58 47 0.0 0.0 0.00 0.00 0.00 76 1015.8
20180524053855 58 47 0.0 0.0 0.00 0.00 0.00 75 1015.9
20180524053358 58 47 0.0 0.0 0.00 0.00 0.00 75 1015.9
20180524052850 59 47 0.0 0.0 0.00 0.00 0.00 74 1015.9
20180524052340 59 47 0.0 0.0 0.00 0.00 0.00 74 1015.9
20180524051851 59 47 0.0 0.0 0.00 0.00 0.00 74 1015.9
20180524051346 59 47 0.0 0.0 0.00 0.00 0.00 73 1015.9
20180524050854 59 47 0.0 0.0 0.00 0.00 0.00 73 1015.8
20180524050352 60 47 0.0 0.0 0.00 0.00 0.00 72 1015.8
20180524045844 60 47 0.0 0.0 0.00 0.00 0.00 71 1015.8
20180524045356 60 47 0.0 0.0 0.00 0.00 0.00 72 1015.7
20180524044845 60 47 0.0 0.0 0.00 0.00 0.00 72 1015.7
20180524044355 61 47 0.0 0.0 0.00 0.00 0.00 71 1015.7
20180524043848 61 47 0.0 0.0 0.00 0.00 0.00 70 1015.6
20180524043344 61 47 0.0 0.0 0.00 0.00 0.00 70 1015.6
20180524042856 61 47 0.0 0.0 0.00 0.00 0.00 70 1015.6
20180524042345 62 47 0.0 0.0 0.00 0.00 0.00 69 1015.6
20180524041856 62 47 0.0 0.0 0.00 0.00 0.00 69 1015.6
20180524041349 62 47 0.0 0.0 0.00 0.00 0.00 68 1015.6
20180524040843 62 47 0.0 0.0 0.00 0.00 0.00 67 1015.4
20180524040346 63 47 0.0 0.0 0.00 0.00 0.00 67 1015.4
20180524035854 63 47 0.0 0.0 0.00 0.00 0.00 67 1015.4
20180524035341 63 47 0.0 0.0 0.00 0.00 0.00 66 1015.2
20180524034852 63 47 0.0 0.0 0.00 0.00 0.00 65 1015.2
20180524034340 64 47 0.0 0.0 0.00 0.00 0.00 64 1015.2
20180524033850 64 47 0.0 0.0 0.00 0.00 0.00 63 1015.1
20180524033341 64 47 0.0 0.0 0.00 0.00 0.00 63 1015.1
20180524032853 65 47 0.0 0.0 0.00 0.00 0.00 62 1015.1
20180524032347 65 47 0.0 0.0 0.00 0.00 0.00 62 1015.1
20180524031856 65 47 0.0 0.0 0.00 0.00 0.00 61 1015.1
20180524031350 65 47 0.0 0.0 0.00 0.00 0.00 60 1015.1
20180524030858 66 47 0.0 0.0 0.00 0.00 0.00 60 1015.1
20180524030355 66 47 0.0 0.0 0.00 0.00 0.00 59 1015.1
20180524025843 67 47 0.0 0.0 0.00 0.00 0.00 60 1015.1
20180524025352 67 47 0.0 0.0 0.00 0.00 0.00 58 1015.0
20180524024845 67 47 0.0 0.0 0.00 0.00 0.00 57 1015.0
20180524024357 68 47 0.0 0.0 0.00 0.00 0.00 56 1015.0
20180524023850 68 47 0.0 0.0 0.00 0.00 0.00 56 1014.9
20180524023343 68 47 0.0 0.0 0.00 0.00 0.00 55 1014.9
20180524022850 69 47 0.0 0.0 0.00 0.00 0.00 56 1014.9
20180524022337 69 47 0.0 0.0 0.00 0.00 0.00 54 1014.9
20180524021855 69 47 0.0 0.0 0.00 0.00 0.00 53 1014.9
20180524021342 69 47 0.0 0.0 0.00 0.00 0.00 54 1014.9
20180524020856 70 47 0.0 0.0 0.00 0.00 0.00 54 1014.7
20180524020354 70 47 0.0 0.0 0.00 0.00 0.00 53 1014.7
20180524015843 70 47 0.0 0.0 0.00 0.00 0.00 55 1014.7
20180524015354 71 47 0.0 0.0 0.00 0.00 0.00 53 1014.3
20180524014842 71 47 0.0 0.0 0.00 0.00 0.00 52 1014.3
20180524014357 71 47 0.0 0.0 0.00 0.00 0.00 52 1014.3
20180524013844 71 47 0.0 0.0 0.00 0.00 0.00 51 1014.1
20180524013356 72 47 0.0 0.0 0.00 0.00 0.00 51 1014.1
20180524012849 72 47 0.0 0.0 0.00 0.00 0.00 51 1014.1
20180524012345 72 47 0.0 0.0 0.00 0.00 0.00 51 1013.7
20180524011900 73 47 0.0 0.0 0.00 0.00 0.00 50 1013.7
20180524011350 73 47 0.0 0.0 0.00 0.00 0.00 50 1013.7
20180524010840 73 46 0.0 0.0 0.00 0.00 0.00 49 1013.5
20180524010338 74 46 0.0 0.0 0.00 0.00 0.00 49 1013.5
20180524005852 74 46 0.0 0.0 0.00 0.00 0.00 48 1013.5
20180524005342 74 46 0.0 0.0 0.00 0.00 0.00 49 1013.1
20180524004851 75 46 0.0 0.0 0.00 0.00 0.00 48 1013.1
20180524004358 75 46 0.0 1.0 0.00 0.00 0.00 47 1013.1
20180524003852 75 46 0.0 3.0 0.00 0.00 0.00 46 1012.7
20180524003346 76 46 0.0 3.0 0.00 0.00 0.00 47 1012.7
20180524002857 76 351 0.0 1.0 0.00 0.00 0.00 47 1012.7
20180524002346 76 351 0.0 2.0 0.00 0.00 0.00 45 1012.6
20180524001853 76 351 0.0 2.0 0.00 0.00 0.00 45 1012.6
20180524001342 76 214 0.0 2.0 0.00 0.00 0.00 44 1012.6
20180524000850 77 213 0.0 6.0 0.00 0.00 0.00 44 1012.5
20180524000350 77 214 0.0 6.0 0.00 0.00 0.00 44 1012.5
20180523235840 77 328 0.0 3.0 0.00 0.00 0.00 43 1012.5
20180523235351 77 217 0.0 1.0 0.00 0.00 0.00 44 1012.2
20180523234845 77 355 0.0 0.0 0.00 0.00 0.00 44 1012.2
20180523234354 78 355 0.0 0.0 0.00 0.00 0.00 43 1012.2
20180523233844 78 355 0.0 2.0 0.00 0.00 0.00 42 1012.0
20180523233355 78 360 0.0 3.0 0.00 0.00 0.00 43 1012.0
20180523232846 78 360 1.0 3.0 0.00 0.00 0.00 42 1012.0
20180523232341 78 207 1.0 3.0 0.00 0.00 0.00 41 1011.6
20180523231852 79 206 1.0 3.0 0.00 0.00 0.00 41 1011.6
20180523231344 79 213 0.0 3.0 0.00 0.00 0.00 41 1011.6
20180523230855 79 156 1.0 5.0 0.00 0.00 0.00 41 1011.6
20180523230348 79 302 2.0 5.0 0.00 0.00 0.00 40 1011.6
20180523225855 79 277 0.0 2.0 0.00 0.00 0.00 40 1011.6
20180523225345 79 292 1.0 4.0 0.00 0.00 0.00 40 1011.5
20180523224838 79 235 2.0 4.0 0.00 0.00 0.00 39 1011.5
20180523224351 79 230 1.0 4.0 0.00 0.00 0.00 39 1011.5
20180523223839 80 315 1.0 6.0 0.00 0.00 0.00 39 1011.2
20180523223348 80 224 3.0 6.0 0.00 0.00 0.00 39 1011.2
20180523222841 80 288 1.0 3.0 0.00 0.00 0.00 39 1011.2
20180523222352 81 329 0.0 4.0 0.00 0.00 0.00 39 1011.1
20180523221342 81 215 0.0 2.0 0.00 0.00 0.00 39 1011.1
20180523220853 82 209 1.0 3.0 0.00 0.00 0.00 37 1011.0
20180523220350 82 207 1.0 3.0 0.00 0.00 0.00 36 1011.0
20180523215843 83 214 0.0 3.0 0.00 0.00 0.00 36 1011.0
20180523215352 83 233 1.0 3.0 0.00 0.00 0.00 36 1011.0
20180523214844 83 211 0.0 5.0 0.00 0.00 0.00 36 1011.0
20180523214352 83 217 1.0 3.0 0.00 0.00 0.00 36 1011.0
20180523213843 83 234 1.0 4.0 0.00 0.00 0.00 36 1011.1
20180523213354 83 184 1.0 4.0 0.00 0.00 0.00 35 1011.1
20180523212846 83 194 1.0 5.0 0.00 0.00 0.00 36 1011.1
20180523212358 83 224 1.0 5.0 0.00 0.00 0.00 36 1011.0
20180523211847 83 311 1.0 4.0 0.00 0.00 0.00 36 1011.0
20180523211357 83 221 2.0 3.0 0.00 0.00 0.00 35 1011.0
20180523210848 83 317 1.0 5.0 0.00 0.00 0.00 37 1011.0
20180523210347 83 234 2.0 5.0 0.00 0.00 0.00 35 1011.0
20180523205858 83 302 1.0 2.0 0.00 0.00 0.00 36 1011.0
20180523205351 83 331 1.0 8.0 0.00 0.00 0.00 35 1011.0
20180523204842 83 220 1.0 7.0 0.00 0.00 0.00 35 1011.0
20180523204348 83 233 2.0 4.0 0.00 0.00 0.00 35 1011.0
20180523203842 83 9 1.0 4.0 0.00 0.00 0.00 35 1011.2
20180523203350 84 328 2.0 5.0 0.00 0.00 0.00 35 1011.2
20180523202841 84 212 2.0 5.0 0.00 0.00 0.00 34 1011.2
20180523202352 84 9 2.0 3.0 0.00 0.00 0.00 33 1011.2
20180523201839 84 210 2.0 3.0 0.00 0.00 0.00 33 1011.2
20180523201355 83 53 1.0 4.0 0.00 0.00 0.00 33 1011.2
20180523200849 83 32 2.0 4.0 0.00 0.00 0.00 33 1011.1
20180523200344 83 5 2.0 7.0 0.00 0.00 0.00 33 1011.1
20180523195857 83 194 3.0 7.0 0.00 0.00 0.00 32 1011.1
20180523195349 83 209 3.0 7.0 0.00 0.00 0.00 35 1011.1
20180523194841 83 209 2.0 7.0 0.00 0.00 0.00 34 1011.1
20180523194349 83 227 2.0 7.0 0.00 0.00 0.00 35 1011.1
20180523193841 83 13 2.0 4.0 0.00 0.00 0.00 35 1011.3
20180523193353 83 11 2.0 6.0 0.00 0.00 0.00 33 1011.3
20180523192844 83 23 1.0 6.0 0.00 0.00 0.00 35 1011.3
20180523192357 83 5 2.0 6.0 0.00 0.00 0.00 34 1011.1
20180523191849 83 218 1.0 6.0 0.00 0.00 0.00 33 1011.1
20180523191340 82 27 2.0 6.0 0.00 0.00 0.00 31 1011.1
20180523190848 83 23 2.0 8.0 0.00 0.00 0.00 30 1011.0
20180523190346 83 14 2.0 8.0 0.00 0.00 0.00 32 1011.0
20180523185841 83 215 2.0 4.0 0.00 0.00 0.00 31 1011.0
20180523185352 83 247 1.0 4.0 0.00 0.00 0.00 30 1011.2
20180523184847 83 28 1.0 4.0 0.00 0.00 0.00 30 1011.2
20180523184354 83 238 1.0 4.0 0.00 0.00 0.00 40 1011.2
20180523183842 82 14 2.0 4.0 0.00 0.00 0.00 35 1011.2
20180523183354 82 17 1.0 4.0 0.00 0.00 0.00 35 1011.2
20180523182843 82 15 1.0 5.0 0.00 0.00 0.00 33 1011.2
20180523182358 83 34 3.0 5.0 0.00 0.00 0.00 31 1011.2
20180523181847 83 5 2.0 5.0 0.00 0.00 0.00 32 1011.2
20180523181353 83 277 1.0 3.0 0.00 0.00 0.00 37 1011.2
20180523180846 82 53 2.0 5.0 0.00 0.00 0.00 34 1011.0
20180523180346 82 331 1.0 5.0 0.00 0.00 0.00 37 1011.0
20180523175853 82 5 1.0 4.0 0.00 0.01 0.00 39 1011.0
20180523175344 82 321 1.0 4.0 0.00 0.01 0.00 40 1011.2